�N����,����,�~����,�C��,���x,�C��,����,���ϕ���,�ő�u�ԕ���,�ő厞����,���˗�,�I�_���x,�n�����x,�ő啗���N��,DTYPE
"24/02/20","00:10",0.0,13.7,98.0,1010.9,322.5,1.6,2.0,335.2,0.00,13.4,11.1,"00:00:56",1
"24/02/20","00:20",0.0,13.7,98.0,1010.9,301.0,1.2,1.9,321.2,0.00,13.4,11.0,"00:11:44",1
"24/02/20","00:30",0.0,13.7,97.9,1010.9,281.3,0.7,1.0,277.5,0.00,13.4,11.1,"00:23:04",1
"24/02/20","00:40",0.0,13.7,98.5,1010.9,310.8,0.6,1.3,319.4,0.00,13.5,11.0,"00:39:44",1
"24/02/20","00:50",0.0,13.8,98.0,1011.2,306.7,1.1,1.8,320.0,0.00,13.5,11.2,"00:48:42",1
"24/02/20","01:00",0.0,13.8,98.0,1010.7,318.4,1.0,1.7,313.0,0.00,13.5,11.2,"00:52:16",1
"24/02/20","01:10",0.0,13.8,98.0,1010.9,314.0,0.8,1.2,313.2,0.00,13.5,10.9,"01:02:24",1
"24/02/20","01:20",0.0,13.8,98.0,1011.2,299.4,1.5,1.8,316.0,0.00,13.5,11.1,"01:15:36",1
"24/02/20","01:30",0.0,13.8,98.0,1011.6,316.6,1.3,1.8,321.4,0.00,13.5,11.1,"01:26:16",1
"24/02/20","01:40",0.0,13.7,98.0,1011.6,297.7,0.7,1.3,312.3,0.00,13.4,11.1,"01:39:44",1
"24/02/20","01:50",0.0,13.6,98.0,1011.4,317.0,1.2,1.8,324.9,0.00,13.3,11.2,"01:48:08",1
"24/02/20","02:00",0.0,13.6,98.1,1011.6,323.9,1.5,2.1,332.8,0.00,13.3,11.2,"01:59:12",1
"24/02/20","02:10",0.0,13.7,98.0,1011.6,287.3,0.6,1.9,324.2,0.00,13.4,11.1,"02:00:08",1
"24/02/20","02:20",0.0,13.6,98.0,1011.6,305.4,0.8,1.8,319.2,0.00,13.3,11.2,"02:13:44",1
"24/02/20","02:30",0.0,13.6,98.0,1011.2,278.6,0.5,1.3,253.1,0.00,13.3,11.0,"02:23:20",1
"24/02/20","02:40",0.0,13.5,98.1,1011.2,313.3,1.2,1.7,338.3,0.00,13.2,11.0,"02:37:28",1
"24/02/20","02:50",0.0,13.2,98.1,1011.4,312.2,1.3,2.0,317.6,0.00,12.9,11.2,"02:42:32",1
"24/02/20","03:00",0.0,13.1,98.2,1011.4,317.7,1.1,1.7,324.8,0.00,12.9,11.0,"02:54:32",1
"24/02/20","03:10",0.0,13.2,98.1,1011.4,303.7,1.1,1.7,321.5,0.00,12.9,11.0,"03:04:00",1
"24/02/20","03:20",0.0,13.1,98.3,1011.2,273.2,1.0,1.6,315.1,0.00,12.9,11.1,"03:12:08",1
"24/02/20","03:30",0.0,13.4,98.2,1011.4,274.9,1.2,1.8,331.6,0.00,13.2,11.0,"03:29:52",1
"24/02/20","03:40",0.0,13.5,98.2,1011.2,331.9,1.7,2.6,324.9,0.00,13.3,11.1,"03:31:28",1
"24/02/20","03:50",0.0,13.4,98.2,1011.2,310.7,1.2,1.9,328.3,0.00,13.2,11.0,"03:40:56",1
"24/02/20","04:00",0.0,13.4,98.2,1011.4,324.7,1.5,1.8,321.6,0.00,13.2,11.0,"03:55:36",1
"24/02/20","04:10",0.0,13.3,98.2,1010.9,310.3,1.3,1.8,323.3,0.00,13.1,11.0,"04:03:36",1
"24/02/20","04:20",0.0,13.4,98.3,1011.4,302.4,0.7,1.3,293.6,0.00,13.2,11.0,"04:18:56",1
"24/02/20","04:30",0.0,13.4,98.3,1011.2,244.9,0.6,1.3,295.3,0.00,13.2,11.1,"04:20:08",1
"24/02/20","04:40",0.0,13.6,98.3,1011.4,322.3,0.3,0.9,314.1,0.00,13.4,11.0,"04:33:20",1
"24/02/20","04:50",0.0,13.6,98.2,1011.4,287.5,0.5,1.2,262.3,0.00,13.4,11.0,"04:46:56",1
"24/02/20","05:00",0.0,13.6,98.2,1011.6,310.3,1.3,1.7,320.8,0.00,13.4,10.9,"04:56:32",1
"24/02/20","05:10",0.0,13.6,98.3,1011.6,323.0,1.5,1.7,325.6,0.00,13.4,11.2,"05:03:52",1
"24/02/20","05:20",0.0,13.6,98.2,1012.1,310.5,1.1,2.0,332.1,0.00,13.4,11.1,"05:11:44",1
"24/02/20","05:30",0.0,13.6,98.3,1012.3,275.2,1.1,1.3,272.6,0.00,13.4,11.0,"05:28:08",1
"24/02/20","05:40",0.0,13.6,98.2,1012.6,297.0,1.1,1.7,319.2,0.00,13.4,11.0,"05:31:20",1
"24/02/20","05:50",0.0,13.7,98.3,1012.6,319.8,0.2,1.0,318.3,0.00,13.5,11.0,"05:40:02",1
"24/02/20","06:00",0.0,13.7,98.3,1012.8,307.8,1.2,1.9,319.7,0.00,13.5,10.8,"05:51:36",1
"24/02/20","06:10",0.0,13.6,98.3,1012.8,285.8,1.1,1.2,296.1,0.00,13.4,11.2,"06:03:52",1
"24/02/20","06:20",0.0,13.7,98.3,1013.0,308.9,1.2,1.7,321.5,0.00,13.5,11.1,"06:16:32",1
"24/02/20","06:30",0.0,13.8,98.3,1013.0,315.1,1.0,1.3,319.6,0.00,13.6,11.0,"06:21:28",1
"24/02/20","06:40",0.0,13.8,98.3,1013.5,298.7,0.6,1.2,293.6,0.00,13.6,10.9,"06:30:02",1
"24/02/20","06:50",0.0,13.7,98.3,1013.5,312.0,1.2,1.9,323.6,0.00,13.5,11.0,"06:48:08",1
"24/02/20","07:00",0.0,13.8,98.3,1013.8,298.8,1.0,1.3,304.7,0.00,13.6,11.2,"06:50:08",1
"24/02/20","07:10",0.0,13.7,98.3,1013.8,288.0,0.5,1.1,311.6,0.00,13.5,11.2,"07:09:04",1
"24/02/20","07:20",0.0,14.0,98.3,1014.0,271.6,1.0,1.3,265.6,0.00,13.8,11.1,"07:18:40",1
"24/02/20","07:30",0.0,14.1,98.3,1014.2,313.4,1.5,1.9,323.0,0.00,13.9,11.1,"07:22:48",1
"24/02/20","07:40",0.0,14.2,98.3,1014.5,284.0,1.3,2.1,316.5,0.01,14.0,10.9,"07:39:46",1
"24/02/20","07:50",0.0,14.4,98.3,1014.7,308.6,1.3,1.9,317.8,0.02,14.2,11.2,"07:44:24",1
"24/02/20","08:00",0.0,14.4,98.2,1014.9,327.1,1.1,1.6,325.7,0.00,14.2,10.8,"07:52:08",1
"24/02/20","08:10",0.0,14.4,98.3,1014.9,331.2,1.0,1.6,321.0,0.00,14.2,11.2,"08:05:06",1
"24/02/20","08:20",0.2,14.7,98.3,1014.7,310.0,0.7,1.6,306.5,0.02,14.5,11.1,"08:10:08",1
"24/02/20","08:30",0.0,14.9,98.2,1014.9,262.1,0.8,1.3,246.5,0.04,14.7,11.1,"08:28:32",1
"24/02/20","08:40",0.0,14.9,98.2,1014.7,262.2,1.5,1.7,255.2,0.03,14.7,11.2,"08:30:24",1
"24/02/20","08:50",0.0,14.9,98.1,1014.9,250.1,1.5,2.1,242.0,0.02,14.6,11.1,"08:43:28",1
"24/02/20","09:00",0.0,15.1,98.2,1014.7,266.1,1.3,1.8,254.8,0.07,14.9,11.2,"08:54:40",1
"24/02/20","09:10",0.0,15.4,98.3,1014.9,278.4,1.3,1.7,258.8,0.15,15.2,11.2,"09:00:40",1
"24/02/20","09:20",0.0,15.8,98.2,1014.7,277.5,0.6,1.2,332.4,0.14,15.6,11.3,"09:13:12",1
"24/02/20","09:30",0.0,15.9,98.0,1014.9,255.8,0.7,1.2,255.9,0.13,15.6,11.2,"09:28:32",1
"24/02/20","09:40",0.0,15.9,98.0,1014.9,256.7,1.0,1.6,265.5,0.11,15.6,11.3,"09:38:00",1
"24/02/20","09:50",0.0,15.9,98.0,1014.7,261.9,0.7,1.4,264.2,0.10,15.6,11.0,"09:46:24",1
"24/02/20","10:00",0.0,15.3,97.9,1014.9,314.1,2.3,4.8,304.2,0.07,15.0,11.3,"09:56:00",1
"24/02/20","10:10",0.0,14.6,98.7,1014.7,340.0,3.4,6.8,341.0,0.08,14.4,11.4,"10:04:08",1
"24/02/20","10:20",0.0,14.3,98.2,1015.2,340.8,3.1,7.5,336.1,0.07,14.1,11.3,"10:19:06",1
"24/02/20","10:30",0.0,14.0,98.2,1015.9,346.4,3.6,6.3,331.7,0.04,13.8,11.4,"10:24:04",1
"24/02/20","10:40",0.0,13.8,98.0,1015.9,344.5,3.6,6.8,351.6,0.05,13.5,11.4,"10:38:02",1
"24/02/20","10:50",0.0,13.8,97.6,1015.9,344.8,3.7,7.8,336.7,0.09,13.5,11.5,"10:40:42",1
"24/02/20","11:00",0.0,13.7,97.8,1015.9,343.9,3.7,7.1,339.2,0.12,13.4,11.5,"10:54:52",1
"24/02/20","11:10",0.0,14.0,97.7,1016.1,339.8,3.6,7.4,352.6,0.17,13.7,11.5,"11:01:54",1
"24/02/20","11:20",0.0,14.0,97.1,1016.1,325.3,4.6,8.9,332.3,0.13,13.6,11.6,"11:10:32",1
"24/02/20","11:30",0.0,14.0,96.6,1016.1,329.7,4.2,6.3,334.8,0.09,13.5,11.6,"11:21:12",1
"24/02/20","11:40",0.0,14.1,96.2,1016.1,326.7,3.6,6.2,332.3,0.11,13.5,11.7,"11:31:28",1
"24/02/20","11:50",0.0,14.3,95.4,1015.9,332.2,3.4,6.8,328.1,0.19,13.6,11.6,"11:46:52",1
"24/02/20","12:00",0.0,14.3,93.8,1015.9,330.9,3.9,8.1,335.8,0.24,13.4,11.8,"11:54:56",1
"24/02/20","12:10",0.0,14.4,92.1,1015.4,340.5,3.6,7.7,311.8,0.25,13.2,11.4,"12:02:24",1
"24/02/20","12:20",0.0,14.9,89.7,1014.9,342.0,2.5,5.7,328.6,0.30,13.3,11.5,"12:12:16",1
"24/02/20","12:30",0.0,15.1,87.5,1015.2,350.6,2.2,4.0,358.3,0.24,13.1,11.7,"12:25:20",1
"24/02/20","12:40",0.0,15.2,86.1,1015.2,340.0,2.5,4.8,341.4,0.27,12.9,11.7,"12:39:44",1
"24/02/20","12:50",0.0,15.4,85.3,1015.2,343.0,3.0,4.5,354.7,0.38,13.0,11.6,"12:40:40",1
"24/02/20","13:00",0.0,15.2,84.1,1015.4,341.3,3.6,6.7,347.0,0.34,12.6,11.7,"12:53:36",1
"24/02/20","13:10",0.0,15.0,82.6,1014.9,344.6,4.2,9.1,331.0,0.31,12.1,11.8,"13:08:02",1
"24/02/20","13:20",0.0,15.5,82.3,1014.7,341.8,3.5,6.2,313.3,0.48,12.5,11.8,"13:18:56",1
"24/02/20","13:30",0.0,15.4,81.0,1014.7,349.7,3.2,5.4,342.2,0.28,12.2,12.1,"13:29:52",1
"24/02/20","13:40",0.0,15.4,80.9,1014.5,344.5,2.7,5.0,341.9,0.24,12.2,11.9,"13:30:02",1
"24/02/20","13:50",0.0,15.6,81.0,1014.2,344.1,3.1,5.7,347.0,0.26,12.4,12.0,"13:43:12",1
"24/02/20","14:00",0.0,15.5,80.9,1014.5,340.8,3.6,7.1,307.9,0.27,12.3,12.1,"13:58:00",1
"24/02/20","14:10",0.0,15.3,80.9,1014.5,344.9,3.7,6.4,332.0,0.24,12.1,12.0,"14:03:20",1
"24/02/20","14:20",0.0,14.9,81.4,1014.7,339.4,4.0,8.3,341.8,0.16,11.8,12.2,"14:17:18",1
"24/02/20","14:30",0.0,14.5,81.9,1014.9,344.3,3.5,7.4,348.0,0.14,11.5,12.2,"14:24:02",1
"24/02/20","14:40",0.0,14.5,82.2,1014.7,335.3,3.7,7.9,332.2,0.18,11.5,12.4,"14:34:32",1
"24/02/20","14:50",0.0,14.2,81.7,1014.5,342.0,3.5,7.4,329.9,0.16,11.2,12.4,"14:49:34",1
"24/02/20","15:00",0.0,13.8,81.9,1014.7,337.7,4.5,6.4,323.4,0.13,10.8,12.3,"14:54:26",1
"24/02/20","15:10",0.0,13.5,81.9,1014.9,339.3,4.4,7.0,324.3,0.10,10.5,12.3,"15:06:14",1
"24/02/20","15:20",0.0,13.4,82.0,1015.2,337.9,3.5,5.2,0.9,0.09,10.4,12.2,"15:14:30",1
"24/02/20","15:30",0.0,13.3,82.1,1015.2,334.7,3.2,5.9,332.3,0.06,10.4,12.3,"15:23:08",1
"24/02/20","15:40",0.0,13.2,82.1,1015.4,346.1,3.4,6.8,334.4,0.07,10.3,12.4,"15:38:56",1
"24/02/20","15:50",0.0,13.0,81.9,1015.4,333.7,4.5,8.2,326.2,0.06,10.0,12.2,"15:49:36",1
"24/02/20","16:00",0.0,12.9,82.3,1015.6,342.4,4.1,8.7,337.2,0.06,10.0,12.3,"15:54:36",1
"24/02/20","16:10",0.0,12.8,82.7,1015.4,337.3,3.6,8.7,348.4,0.03,10.0,12.3,"16:05:38",1
"24/02/20","16:20",0.0,12.7,82.8,1015.6,338.1,4.5,7.4,332.7,0.04,9.9,12.5,"16:17:40",1
"24/02/20","16:30",0.0,12.8,82.8,1015.9,337.7,3.4,7.2,332.5,0.02,10.0,12.4,"16:22:50",1
"24/02/20","16:40",0.0,12.8,82.6,1016.1,334.8,3.5,6.2,337.0,0.01,10.0,12.2,"16:34:42",1
"24/02/20","16:50",0.0,12.7,82.3,1016.1,335.5,3.2,6.6,325.0,0.00,9.8,12.3,"16:41:56",1
"24/02/20","17:00",0.0,12.6,82.2,1016.4,337.1,3.0,5.0,324.3,0.00,9.7,12.2,"16:52:50",1
"24/02/20","17:10",0.0,12.5,82.2,1016.1,338.0,3.6,7.9,335.8,0.00,9.6,12.1,"17:04:30",1
"24/02/20","17:20",0.0,12.4,82.4,1016.4,338.5,3.6,7.2,335.4,0.00,9.5,12.1,"17:10:30",1
"24/02/20","17:30",0.0,12.3,82.5,1016.6,334.6,4.0,7.2,345.6,0.00,9.4,11.9,"17:21:22",1
"24/02/20","17:40",0.0,12.3,82.9,1016.4,333.9,3.4,5.6,331.1,0.00,9.5,12.2,"17:30:08",1
"24/02/20","17:50",0.0,12.2,82.8,1016.4,336.1,3.2,5.8,341.5,0.00,9.4,12.2,"17:44:12",1
"24/02/20","18:00",0.0,12.1,82.8,1016.4,335.9,4.2,7.2,334.1,0.00,9.3,12.1,"17:59:16",1
"24/02/20","18:10",0.0,12.0,82.9,1016.6,341.9,4.1,8.1,350.7,0.00,9.2,12.0,"18:00:58",1
"24/02/20","18:20",0.0,12.0,83.0,1017.1,327.6,2.8,6.5,331.4,0.00,9.2,12.0,"18:14:26",1
"24/02/20","18:30",0.0,12.0,82.9,1016.8,325.0,2.7,4.5,332.7,0.00,9.2,12.0,"18:24:24",1
"24/02/20","18:40",0.0,12.0,82.6,1016.8,322.0,3.0,4.9,342.4,0.00,9.2,12.0,"18:36:46",1
"24/02/20","18:50",0.0,11.9,82.6,1016.8,345.7,2.8,8.5,335.8,0.00,9.1,11.9,"18:49:08",1
"24/02/20","19:00",0.0,11.9,82.6,1017.1,337.6,2.6,4.2,338.5,0.00,9.1,12.1,"18:52:16",1
"24/02/20","19:10",0.0,11.7,82.7,1016.8,342.8,3.5,6.7,316.9,0.00,8.9,12.0,"19:09:24",1
"24/02/20","19:20",0.0,11.6,83.2,1016.8,336.5,4.0,6.8,359.5,0.00,8.9,12.0,"19:16:26",1
"24/02/20","19:30",0.0,11.5,83.6,1016.8,331.0,4.1,6.2,334.4,0.00,8.9,11.9,"19:24:46",1
"24/02/20","19:40",0.0,11.5,83.7,1017.1,325.7,3.7,6.2,331.4,0.00,8.9,11.8,"19:37:38",1
"24/02/20","19:50",0.0,11.5,83.6,1017.3,321.8,3.6,6.3,335.2,0.00,8.9,11.7,"19:47:50",1
"24/02/20","20:00",0.0,11.5,83.4,1017.3,322.5,3.9,6.8,334.4,0.00,8.8,11.7,"19:54:56",1
"24/02/20","20:10",0.0,11.5,83.3,1017.3,328.6,3.0,5.2,319.6,0.00,8.8,11.9,"20:02:32",1
"24/02/20","20:20",0.0,11.5,83.5,1017.5,323.6,2.7,4.9,342.4,0.00,8.8,12.0,"20:17:20",1
"24/02/20","20:30",0.0,11.3,83.5,1017.5,307.1,2.1,3.6,334.6,0.00,8.6,11.7,"20:22:38",1
"24/02/20","20:40",0.0,11.2,83.5,1017.5,341.3,2.5,4.3,349.7,0.00,8.6,11.7,"20:31:32",1
"24/02/20","20:50",0.0,11.1,83.4,1017.8,330.0,2.8,4.5,336.2,0.00,8.4,11.5,"20:45:02",1
"24/02/20","21:00",0.0,11.1,83.6,1017.5,333.6,3.2,5.7,302.1,0.00,8.5,11.8,"20:50:08",1
"24/02/20","21:10",0.0,11.0,84.0,1017.5,331.9,2.7,4.4,343.1,0.00,8.4,11.7,"21:03:32",1
"24/02/20","21:20",0.0,10.7,85.0,1017.1,331.0,2.8,4.3,352.5,0.00,8.3,11.6,"21:19:44",1
"24/02/20","21:30",0.0,10.6,85.7,1017.3,327.2,3.2,4.8,334.3,0.00,8.3,11.4,"21:20:16",1
"24/02/20","21:40",0.0,10.5,86.0,1017.3,321.1,3.4,5.5,348.1,0.00,8.3,11.6,"21:37:54",1
"24/02/20","21:50",0.0,10.4,86.5,1017.8,317.6,3.2,4.3,314.5,0.00,8.3,11.7,"21:43:04",1
"24/02/20","22:00",0.0,10.5,86.8,1017.1,319.1,3.6,6.4,334.7,0.00,8.4,11.5,"21:56:00",1
"24/02/20","22:10",0.0,10.4,87.0,1017.5,316.7,2.8,4.2,318.3,0.00,8.4,11.5,"22:02:16",1
"24/02/20","22:20",0.0,10.4,87.2,1017.5,323.0,3.0,4.1,321.5,0.00,8.4,11.6,"22:12:00",1
"24/02/20","22:30",0.0,10.4,87.4,1017.3,326.0,3.1,5.5,329.7,0.00,8.4,11.7,"22:24:40",1
"24/02/20","22:40",0.0,10.3,87.5,1017.3,331.5,2.7,4.8,337.9,0.00,8.4,11.4,"22:30:02",1
"24/02/20","22:50",0.0,10.2,87.7,1017.3,315.7,3.2,5.5,342.6,0.00,8.3,11.6,"22:40:24",1
"24/02/20","23:00",0.0,10.2,87.8,1017.3,294.0,3.0,4.1,272.3,0.00,8.3,11.2,"22:52:24",1
"24/02/20","23:10",0.0,10.2,87.9,1017.5,301.7,2.6,3.9,324.1,0.00,8.3,11.3,"23:05:36",1
"24/02/20","23:20",0.0,10.1,88.0,1017.3,311.1,2.7,3.5,329.2,0.00,8.2,11.3,"23:19:28",1
"24/02/20","23:30",0.0,10.1,88.1,1017.5,320.0,2.7,4.4,340.4,0.00,8.3,11.3,"23:26:32",1
"24/02/20","23:40",0.0,10.1,88.0,1017.5,324.7,3.9,6.3,338.0,0.00,8.2,11.2,"23:37:04",1
"24/02/20","23:50",0.0,10.1,88.0,1017.5,320.9,3.1,4.0,326.7,0.00,8.2,11.5,"23:40:08",1
"24/02/20","24:00",0.0,10.1,88.0,1017.3,315.7,3.5,4.3,320.5,0.00,8.2,11.4,"23:50:02",1
